JLY7290 SBPV-SBEG

Flight info

Callsign JLY7290
Flight time 1h 16m
Altitude 33000
Route MUPEG UZ74 IGAPO
Aircraft A320/M-SDE3FGHIRWY/LB1

Departure

Time 2026-05-07 03:04
Airport Governador Jorge Teixeira de Oliveira International Airport (SBPV)

Arrival

Time 2026-05-07 04:20
Airport Eduardo Gomes International Airport (SBEG)
Time Latitude Longitude Altitude Speed Heading
2026-05-07 02:50 -8.71460 -63.89928 302 ft 0 kts 86°
2026-05-07 02:57 -8.71461 -63.89945 302 ft 4 kts 87°
2026-05-07 02:57 -8.71462 -63.89973 299 ft 4 kts 89°
2026-05-07 02:58 -8.71462 -63.90000 299 ft 4 kts 92°
2026-05-07 02:58 -8.71460 -63.90027 299 ft 4 kts 101°
2026-05-07 02:58 -8.71451 -63.90050 301 ft 4 kts 146°
2026-05-07 02:58 -8.71444 -63.90055 300 ft 0 kts 176°
2026-05-07 03:00 -8.71448 -63.90054 300 ft 4 kts 176°
2026-05-07 03:00 -8.71511 -63.90050 301 ft 14 kts 176°
2026-05-07 03:00 -8.71610 -63.90045 299 ft 13 kts 177°
2026-05-07 03:01 -8.71696 -63.90040 301 ft 12 kts 177°
2026-05-07 03:01 -8.71770 -63.90036 301 ft 10 kts 176°
2026-05-07 03:01 -8.71834 -63.90033 301 ft 8 kts 178°
2026-05-07 03:01 -8.71887 -63.90048 300 ft 9 kts 210°
2026-05-07 03:02 -8.71936 -63.90087 288 ft 8 kts 221°
2026-05-07 03:02 -8.71971 -63.90125 301 ft 7 kts 241°
2026-05-07 03:02 -8.71967 -63.90160 299 ft 4 kts 308°
2026-05-07 03:02 -8.71936 -63.90170 299 ft 8 kts 355°
2026-05-07 03:03 -8.71912 -63.90171 301 ft 0 kts 356°
2026-05-07 03:03 -8.71887 -63.90173 300 ft 16 kts 356°
2026-05-07 03:03 -8.71520 -63.90195 300 ft 89 kts 356°
2026-05-07 03:03 -8.70700 -63.90244 300 ft 146 kts 356°
2026-05-07 03:04 -8.69623 -63.90310 738 ft 153 kts 357°
2026-05-07 03:04 -8.68561 -63.90379 1284 ft 158 kts 356°
2026-05-07 03:04 -8.67386 -63.90449 1530 ft 181 kts 357°
2026-05-07 03:04 -8.66043 -63.90527 1812 ft 205 kts 357°
2026-05-07 03:05 -8.64531 -63.90572 2084 ft 230 kts
2026-05-07 03:05 -8.63023 -63.89882 2485 ft 252 kts 40°
2026-05-07 03:05 -8.61714 -63.88659 3224 ft 259 kts 43°
2026-05-07 03:05 -8.60388 -63.87409 4058 ft 263 kts 42°
2026-05-07 03:06 -8.59018 -63.86169 4887 ft 266 kts 41°
2026-05-07 03:06 -8.57624 -63.84961 5687 ft 269 kts 40°
2026-05-07 03:06 -8.56174 -63.83749 6477 ft 273 kts 39°
2026-05-07 03:06 -8.54684 -63.82537 7214 ft 277 kts 39°
2026-05-07 03:07 -8.53165 -63.81315 7946 ft 281 kts 39°
2026-05-07 03:07 -8.51632 -63.80091 8690 ft 284 kts 39°
2026-05-07 03:07 -8.50064 -63.78843 9413 ft 288 kts 39°
2026-05-07 03:07 -8.48479 -63.77581 10104 ft 292 kts 39°
2026-05-07 03:08 -8.46843 -63.76277 10441 ft 310 kts 39°
2026-05-07 03:08 -8.45084 -63.74879 10584 ft 333 kts 39°
2026-05-07 03:08 -8.43212 -63.73394 10839 ft 349 kts 39°
2026-05-07 03:08 -8.41284 -63.71865 11384 ft 355 kts 39°
2026-05-07 03:09 -8.39353 -63.70334 11982 ft 359 kts 39°
2026-05-07 03:09 -8.37383 -63.68768 12583 ft 362 kts 39°
2026-05-07 03:09 -8.35392 -63.67183 13180 ft 366 kts 39°
2026-05-07 03:09 -8.33386 -63.65587 13776 ft 369 kts 39°
2026-05-07 03:10 -8.31356 -63.63973 14285 ft 372 kts 39°
2026-05-07 03:10 -8.29313 -63.62351 14821 ft 375 kts 39°
2026-05-07 03:10 -8.27256 -63.60718 15351 ft 377 kts 40°
2026-05-07 03:10 -8.25179 -63.59098 15883 ft 379 kts 38°
2026-05-07 03:11 -8.23018 -63.57550 16411 ft 382 kts 36°
2026-05-07 03:11 -8.20832 -63.56081 16920 ft 384 kts 35°
2026-05-07 03:11 -8.18583 -63.54617 17437 ft 386 kts 34°
2026-05-07 03:11 -8.16308 -63.53144 17942 ft 389 kts 35°
2026-05-07 03:12 -8.14036 -63.51658 18421 ft 391 kts 35°
2026-05-07 03:12 -8.11756 -63.50145 18847 ft 393 kts 36°
2026-05-07 03:12 -8.09469 -63.48611 19265 ft 396 kts 36°
2026-05-07 03:12 -8.07166 -63.47057 19693 ft 399 kts 36°
2026-05-07 03:13 -8.04856 -63.45494 20102 ft 402 kts 36°
2026-05-07 03:13 -8.02536 -63.43928 20517 ft 405 kts 36°
2026-05-07 03:13 -8.00173 -63.42336 20923 ft 408 kts 36°
2026-05-07 03:13 -7.97838 -63.40766 21316 ft 410 kts 35°
2026-05-07 03:14 -7.95454 -63.39164 21710 ft 413 kts 35°
2026-05-07 03:14 -7.93052 -63.37553 22095 ft 416 kts 35°
2026-05-07 03:14 -7.88214 -63.34305 22845 ft 421 kts 35°
2026-05-07 03:15 -7.85762 -63.32659 23204 ft 424 kts 35°
2026-05-07 03:15 -7.83301 -63.31004 23558 ft 426 kts 35°
2026-05-07 03:15 -7.80821 -63.29338 23852 ft 429 kts 35°
2026-05-07 03:15 -7.78332 -63.27668 24152 ft 431 kts 35°
2026-05-07 03:16 -7.75831 -63.25991 24445 ft 433 kts 35°
2026-05-07 03:16 -7.73322 -63.24310 24732 ft 435 kts 35°
2026-05-07 03:16 -7.70830 -63.22641 25009 ft 437 kts 35°
2026-05-07 03:16 -7.68299 -63.20944 25290 ft 438 kts 35°
2026-05-07 03:17 -7.65753 -63.19235 25567 ft 440 kts 35°
2026-05-07 03:17 -7.63200 -63.17519 25836 ft 442 kts 35°
2026-05-07 03:17 -7.60634 -63.15794 26112 ft 444 kts 35°
2026-05-07 03:17 -7.58058 -63.14065 26371 ft 446 kts 35°
2026-05-07 03:18 -7.55470 -63.12328 26635 ft 448 kts 35°
2026-05-07 03:18 -7.52874 -63.10586 26893 ft 450 kts 35°
2026-05-07 03:18 -7.50269 -63.08837 27148 ft 451 kts 35°
2026-05-07 03:18 -7.47645 -63.07078 27398 ft 453 kts 35°
2026-05-07 03:19 -7.45016 -63.05320 27649 ft 455 kts 35°
2026-05-07 03:19 -7.42407 -63.03578 27879 ft 457 kts 34°
2026-05-07 03:19 -7.39752 -63.01810 28109 ft 459 kts 34°
2026-05-07 03:19 -7.37084 -63.00032 28340 ft 460 kts 35°
2026-05-07 03:20 -7.34408 -62.98246 28564 ft 462 kts 35°
2026-05-07 03:20 -7.31716 -62.96447 28778 ft 464 kts 35°
2026-05-07 03:20 -7.29024 -62.94647 28984 ft 466 kts 35°
2026-05-07 03:20 -7.26319 -62.92845 29194 ft 467 kts 34°
2026-05-07 03:21 -7.23601 -62.91039 29394 ft 469 kts 34°
2026-05-07 03:21 -7.20914 -62.89252 29591 ft 470 kts 34°
2026-05-07 03:21 -7.18181 -62.87433 29795 ft 471 kts 34°
2026-05-07 03:21 -7.15448 -62.85613 30030 ft 471 kts 34°
2026-05-07 03:22 -7.12715 -62.83792 30287 ft 470 kts 35°
2026-05-07 03:22 -7.09992 -62.81973 30523 ft 470 kts 34°
2026-05-07 03:22 -7.07274 -62.80157 30761 ft 469 kts 34°
2026-05-07 03:22 -7.04557 -62.78343 30994 ft 468 kts 34°
2026-05-07 03:23 -7.01842 -62.76532 31236 ft 468 kts 34°
2026-05-07 03:23 -6.99165 -62.74748 31473 ft 467 kts 34°
2026-05-07 03:23 -6.96457 -62.72944 31709 ft 467 kts 34°
2026-05-07 03:23 -6.93748 -62.71138 31950 ft 466 kts 34°
2026-05-07 03:24 -6.91046 -62.69332 32191 ft 466 kts 34°
2026-05-07 03:24 -6.88352 -62.67528 32431 ft 466 kts 34°
2026-05-07 03:24 -6.85655 -62.65719 32667 ft 465 kts 34°
2026-05-07 03:24 -6.82965 -62.63909 32900 ft 465 kts 34°
2026-05-07 03:25 -6.80274 -62.62098 33003 ft 465 kts 34°
2026-05-07 03:25 -6.74934 -62.58505 33017 ft 464 kts 34°
2026-05-07 03:26 -6.69563 -62.54900 33014 ft 464 kts 34°
2026-05-07 03:26 -6.64185 -62.51299 33016 ft 464 kts 34°
2026-05-07 03:27 -6.58810 -62.47700 33023 ft 464 kts 34°
2026-05-07 03:27 -6.53439 -62.44107 33019 ft 464 kts 34°
2026-05-07 03:28 -6.48083 -62.40539 33010 ft 464 kts 34°
2026-05-07 03:28 -6.42695 -62.36970 33009 ft 464 kts 34°
2026-05-07 03:29 -6.37305 -62.33407 33013 ft 464 kts 33°
2026-05-07 03:29 -6.31910 -62.29838 33014 ft 464 kts 34°
2026-05-07 03:30 -6.26544 -62.26287 33020 ft 465 kts 33°
2026-05-07 03:30 -6.21142 -62.22721 33013 ft 464 kts 34°
2026-05-07 03:31 -6.15747 -62.19149 33014 ft 464 kts 34°
2026-05-07 03:31 -6.10358 -62.15586 33012 ft 464 kts 33°
2026-05-07 03:32 -6.04961 -62.12026 33013 ft 464 kts 34°
2026-05-07 03:32 -5.99607 -62.08492 33012 ft 464 kts 34°
2026-05-07 03:33 -5.94214 -62.04928 33016 ft 464 kts 34°
2026-05-07 03:33 -5.88825 -62.01369 33018 ft 464 kts 34°
2026-05-07 03:34 -5.83438 -61.97811 33019 ft 464 kts 34°
2026-05-07 03:34 -5.78089 -61.94275 33018 ft 463 kts 34°
2026-05-07 03:35 -5.72699 -61.90720 33019 ft 463 kts 34°
2026-05-07 03:35 -5.67307 -61.87166 33023 ft 463 kts 34°
2026-05-07 03:36 -5.61920 -61.83610 33023 ft 463 kts 34°
2026-05-07 03:36 -5.56319 -61.80408 33023 ft 464 kts 29°
2026-05-07 03:37 -5.50663 -61.77381 33023 ft 464 kts 29°
2026-05-07 03:37 -5.44966 -61.74325 33026 ft 464 kts 29°
2026-05-07 03:38 -5.39272 -61.71273 33029 ft 464 kts 29°
2026-05-07 03:38 -5.33579 -61.68221 33027 ft 464 kts 29°
2026-05-07 03:39 -5.27884 -61.65160 33030 ft 464 kts 29°
2026-05-07 03:39 -5.22221 -61.62125 33023 ft 464 kts 29°
2026-05-07 03:40 -5.16522 -61.59073 33024 ft 465 kts 29°
2026-05-07 03:40 -5.10819 -61.56010 33028 ft 465 kts 29°
2026-05-07 03:41 -5.05114 -61.52959 33023 ft 465 kts 29°
2026-05-07 03:41 -4.99442 -61.49931 33030 ft 465 kts 29°
2026-05-07 03:42 -4.93740 -61.46883 33034 ft 464 kts 29°
2026-05-07 03:42 -4.88047 -61.43827 33041 ft 464 kts 29°
2026-05-07 03:43 -4.82351 -61.40775 33027 ft 464 kts 29°
2026-05-07 03:43 -4.76663 -61.37731 33033 ft 464 kts 29°
2026-05-07 03:44 -4.71009 -61.34710 33032 ft 463 kts 29°
2026-05-07 03:44 -4.65323 -61.31673 33030 ft 463 kts 29°
2026-05-07 03:45 -4.59650 -61.28635 33028 ft 463 kts 29°
2026-05-07 03:45 -4.53970 -61.25595 33028 ft 462 kts 29°
2026-05-07 03:46 -4.48305 -61.22554 33026 ft 459 kts 32°
2026-05-07 03:46 -4.45896 -61.20578 33015 ft 439 kts 51°
2026-05-07 03:46 -4.44017 -61.18205 33021 ft 438 kts 49°
2026-05-07 03:46 -4.41678 -61.16286 33017 ft 447 kts 32°
2026-05-07 03:47 -4.38860 -61.14816 33017 ft 455 kts 25°
2026-05-07 03:47 -4.32940 -61.12406 33017 ft 461 kts 23°
2026-05-07 03:48 -4.27049 -61.09837 33016 ft 462 kts 26°
2026-05-07 03:48 -4.21348 -61.06956 32372 ft 464 kts 28°
2026-05-07 03:48 -4.18461 -61.05433 31040 ft 475 kts 29°
2026-05-07 03:49 -4.15511 -61.03873 29835 ft 482 kts 29°
2026-05-07 03:49 -4.12553 -61.02328 29012 ft 477 kts 28°
2026-05-07 03:49 -4.09628 -61.00823 28374 ft 469 kts 28°
2026-05-07 03:49 -4.06736 -60.99356 27738 ft 463 kts 28°
2026-05-07 03:50 -4.03870 -60.97919 27077 ft 458 kts 28°
2026-05-07 03:50 -4.01035 -60.96501 26424 ft 454 kts 28°
2026-05-07 03:50 -3.98230 -60.95090 25782 ft 450 kts 28°
2026-05-07 03:50 -3.95445 -60.93680 25143 ft 447 kts 28°
2026-05-07 03:51 -3.92678 -60.92276 24510 ft 444 kts 28°
2026-05-07 03:51 -3.89967 -60.90901 23904 ft 441 kts 28°
2026-05-07 03:51 -3.87236 -60.89517 23249 ft 439 kts 28°
2026-05-07 03:51 -3.84525 -60.88144 22645 ft 434 kts 28°
2026-05-07 03:52 -3.81842 -60.86788 22113 ft 429 kts 28°
2026-05-07 03:52 -3.79198 -60.85452 21574 ft 424 kts 28°
2026-05-07 03:52 -3.76588 -60.84132 21225 ft 415 kts 28°
2026-05-07 03:52 -3.74048 -60.82847 21099 ft 402 kts 28°
2026-05-07 03:53 -3.71591 -60.81605 20976 ft 389 kts 28°
2026-05-07 03:53 -3.69338 -60.80215 20774 ft 375 kts 41°
2026-05-07 03:53 -3.67623 -60.78265 20195 ft 374 kts 60°
2026-05-07 03:53 -3.66615 -60.75887 19978 ft 373 kts 77°
2026-05-07 03:54 -3.66321 -60.73357 19949 ft 372 kts 92°
2026-05-07 03:54 -3.66747 -60.70801 19956 ft 373 kts 108°
2026-05-07 03:54 -3.67898 -60.68481 19956 ft 374 kts 125°
2026-05-07 03:54 -3.69700 -60.66615 19962 ft 376 kts 142°
2026-05-07 03:55 -3.72005 -60.65365 19969 ft 379 kts 159°
2026-05-07 03:55 -3.74598 -60.64852 19958 ft 383 kts 176°
2026-05-07 03:55 -3.77246 -60.65143 19961 ft 386 kts 194°
2026-05-07 03:55 -3.79761 -60.66118 19967 ft 389 kts 202°
2026-05-07 03:56 -3.82200 -60.67288 19972 ft 391 kts 205°
2026-05-07 03:56 -3.84613 -60.68557 19960 ft 400 kts 207°
2026-05-07 03:56 -3.87065 -60.69900 19964 ft 403 kts 207°
2026-05-07 03:56 -3.89490 -60.71316 19951 ft 405 kts 214°
2026-05-07 03:57 -3.91489 -60.73282 19963 ft 407 kts 233°
2026-05-07 03:57 -3.92813 -60.75816 19969 ft 410 kts 252°
2026-05-07 03:57 -3.93262 -60.78646 19968 ft 411 kts 271°
2026-05-07 03:57 -3.92785 -60.81418 19969 ft 411 kts 290°
2026-05-07 03:58 -3.91431 -60.83909 19961 ft 409 kts 310°
2026-05-07 03:58 -3.89353 -60.85827 19968 ft 406 kts 329°
2026-05-07 03:58 -3.86792 -60.86976 19963 ft 403 kts 347°
2026-05-07 03:58 -3.84023 -60.87252 19962 ft 400 kts
2026-05-07 03:59 -3.81338 -60.86642 19960 ft 396 kts 24°
2026-05-07 03:59 -3.78814 -60.85525 19958 ft 396 kts 27°
2026-05-07 03:59 -3.76354 -60.84287 19958 ft 396 kts 29°
2026-05-07 03:59 -3.73926 -60.82982 19970 ft 396 kts 30°
2026-05-07 04:00 -3.71509 -60.81654 19966 ft 396 kts 30°
2026-05-07 04:00 -3.69234 -60.80126 19964 ft 393 kts 44°
2026-05-07 04:00 -3.67516 -60.78074 19968 ft 390 kts 60°
2026-05-07 04:00 -3.66442 -60.75593 19967 ft 388 kts 77°
2026-05-07 04:01 -3.66143 -60.72925 19964 ft 387 kts 93°
2026-05-07 04:01 -3.66647 -60.70292 19961 ft 387 kts 110°
2026-05-07 04:01 -3.67912 -60.67927 19968 ft 388 kts 127°
2026-05-07 04:01 -3.69832 -60.66033 19965 ft 390 kts 143°
2026-05-07 04:02 -3.72240 -60.64790 19954 ft 393 kts 161°
2026-05-07 04:02 -3.74932 -60.64321 19962 ft 396 kts 178°
2026-05-07 04:02 -3.77667 -60.64689 19963 ft 400 kts 195°
2026-05-07 04:02 -3.80176 -60.65823 19965 ft 404 kts 210°
2026-05-07 04:03 -3.82361 -60.67585 19965 ft 407 kts 226°
2026-05-07 04:03 -3.83958 -60.69921 19956 ft 409 kts 244°
2026-05-07 04:03 -3.84754 -60.72646 19959 ft 411 kts 263°
2026-05-07 04:03 -3.84638 -60.75494 19964 ft 411 kts 283°
2026-05-07 04:04 -3.83621 -60.78157 19962 ft 410 kts 302°
2026-05-07 04:04 -3.81834 -60.80363 19966 ft 408 kts 320°
2026-05-07 04:04 -3.79474 -60.81903 19959 ft 406 kts 338°
2026-05-07 04:04 -3.76806 -60.82622 19959 ft 402 kts 356°
2026-05-07 04:05 -3.74036 -60.82495 19965 ft 399 kts 14°
2026-05-07 04:05 -3.71447 -60.81562 19906 ft 396 kts 31°
2026-05-07 04:05 -3.69130 -60.80085 19573 ft 393 kts 36°
2026-05-07 04:05 -3.66919 -60.78490 19100 ft 391 kts 38°
2026-05-07 04:06 -3.64767 -60.76839 18608 ft 389 kts 39°
2026-05-07 04:06 -3.62640 -60.75174 18077 ft 388 kts 39°
2026-05-07 04:06 -3.60518 -60.73520 17551 ft 386 kts 39°
2026-05-07 04:06 -3.58393 -60.71891 17037 ft 383 kts 38°
2026-05-07 04:07 -3.56274 -60.70292 16527 ft 381 kts 38°
2026-05-07 04:07 -3.54184 -60.68733 16017 ft 379 kts 38°
2026-05-07 04:07 -3.52071 -60.67168 15502 ft 377 kts 38°
2026-05-07 04:07 -3.49968 -60.65608 14986 ft 376 kts 38°
2026-05-07 04:08 -3.47877 -60.64052 14466 ft 374 kts 38°
2026-05-07 04:08 -3.45789 -60.62497 13942 ft 373 kts 38°
2026-05-07 04:08 -3.43713 -60.60949 13376 ft 371 kts 38°
2026-05-07 04:08 -3.41653 -60.59412 12846 ft 368 kts 38°
2026-05-07 04:09 -3.39611 -60.57888 12308 ft 365 kts 38°
2026-05-07 04:09 -3.37607 -60.56393 11787 ft 362 kts 38°
2026-05-07 04:09 -3.35597 -60.54892 11250 ft 359 kts 38°
2026-05-07 04:09 -3.33602 -60.53403 10717 ft 357 kts 38°
2026-05-07 04:10 -3.31637 -60.51940 10519 ft 344 kts 38°
2026-05-07 04:10 -3.29757 -60.50539 10400 ft 330 kts 38°
2026-05-07 04:10 -3.27955 -60.49197 10280 ft 317 kts 38°
2026-05-07 04:10 -3.26222 -60.47905 10167 ft 305 kts 38°
2026-05-07 04:11 -3.24549 -60.46658 10015 ft 295 kts 38°
2026-05-07 04:11 -3.23014 -60.45510 9622 ft 295 kts 38°
2026-05-07 04:11 -3.21352 -60.44267 9307 ft 290 kts 38°
2026-05-07 04:11 -3.19739 -60.43058 8916 ft 289 kts 39°
2026-05-07 04:12 -3.18132 -60.41855 8527 ft 288 kts 39°
2026-05-07 04:12 -3.16534 -60.40664 8153 ft 286 kts 38°
2026-05-07 04:12 -3.14942 -60.39482 7772 ft 284 kts 39°
2026-05-07 04:12 -3.13364 -60.38307 7400 ft 282 kts 39°
2026-05-07 04:13 -3.11791 -60.37133 6889 ft 285 kts 39°
2026-05-07 04:13 -3.10182 -60.35934 6237 ft 292 kts 39°
2026-05-07 04:13 -3.09097 -60.35124 5747 ft 295 kts 39°
2026-05-07 04:13 -3.06982 -60.33548 5343 ft 269 kts 39°
2026-05-07 04:14 -3.05564 -60.32484 5269 ft 245 kts 42°
2026-05-07 04:14 -3.04770 -60.31658 5010 ft 243 kts 56°
2026-05-07 04:14 -3.03890 -60.29663 4646 ft 234 kts 81°
2026-05-07 04:14 -3.03807 -60.28086 4366 ft 221 kts 90°
2026-05-07 04:15 -3.03809 -60.27086 4181 ft 214 kts 90°
2026-05-07 04:15 -3.03812 -60.25626 3909 ft 205 kts 90°
2026-05-07 04:15 -3.03815 -60.24226 3680 ft 199 kts 90°
2026-05-07 04:15 -3.03819 -60.22862 3407 ft 193 kts 90°
2026-05-07 04:16 -3.03822 -60.21537 3157 ft 188 kts 89°
2026-05-07 04:16 -3.03826 -60.19839 2844 ft 181 kts 89°
2026-05-07 04:16 -3.03829 -60.18597 2617 ft 177 kts 89°
2026-05-07 04:16 -3.03830 -60.17773 2463 ft 174 kts 89°
2026-05-07 04:17 -3.03833 -60.16578 2239 ft 170 kts 89°
2026-05-07 04:17 -3.03836 -60.15422 2027 ft 167 kts 89°
2026-05-07 04:17 -3.03838 -60.14274 1814 ft 163 kts 89°
2026-05-07 04:17 -3.03841 -60.13167 1596 ft 155 kts 89°
2026-05-07 04:18 -3.03843 -60.12122 1422 ft 147 kts 89°
2026-05-07 04:18 -3.03846 -60.11113 1232 ft 144 kts 89°
2026-05-07 04:18 -3.03848 -60.10115 1052 ft 143 kts 89°
2026-05-07 04:18 -3.03850 -60.09118 869 ft 143 kts 89°
2026-05-07 04:19 -3.03852 -60.08119 684 ft 144 kts 89°
2026-05-07 04:19 -3.03854 -60.07121 475 ft 144 kts 89°
2026-05-07 04:19 -3.03855 -60.06140 295 ft 142 kts 89°
2026-05-07 04:19 -3.03858 -60.05256 268 ft 107 kts 90°
2026-05-07 04:20 -3.03861 -60.04683 269 ft 57 kts 90°
2026-05-07 04:20 -3.03861 -60.04427 270 ft 31 kts 90°
2026-05-07 04:20 -3.03861 -60.04212 269 ft 31 kts 90°
2026-05-07 04:21 -3.03854 -60.03813 268 ft 22 kts 67°
2026-05-07 04:21 -3.03731 -60.03781 269 ft 21 kts 328°
2026-05-07 04:21 -3.03667 -60.03910 268 ft 22 kts 284°
2026-05-07 04:21 -3.03624 -60.04064 268 ft 24 kts 285°
2026-05-07 04:22 -3.03578 -60.04224 268 ft 24 kts 290°
2026-05-07 04:22 -3.03468 -60.04334 268 ft 23 kts 326°
2026-05-07 04:22 -3.03347 -60.04392 268 ft 13 kts 325°
2026-05-07 04:22 -3.03340 -60.04461 268 ft 6 kts 259°
2026-05-07 04:23 -3.03322 -60.04493 268 ft 6 kts 353°
2026-05-07 04:23 -3.03275 -60.04496 268 ft 5 kts 349°
2026-05-07 04:23 -3.03257 -60.04499 268 ft 3 kts 348°
2026-05-07 04:23 -3.03253 -60.04500 268 ft 0 kts 349°
2026-05-07 04:24 -3.03260 -60.04498 270 ft 0 kts 349°